Regional Weather Roundup
Issued by NWS Portland, ME

Current Version | Previous Version | Text Only | Print | Product List | Glossary Off
Versions: 1 2 3 4 5 6 7 8 9 10 11 12 13 14 15 16 17 18 19 20 21 22 23 24 25 26 27 28 29 30 31 32 33 34 35 36 37 38 39 40 41 42 43 44 45 46 47 48 49 50
427 ASUS41 KGYX 190405 RWRGYX WEATHER ROUNDUP FOR MAINE AND NEW HAMPSHIRE NATIONAL WEATHER SERVICE GRAY ME 1200 AM EDT SUN AUG 19 2018 MEZ002-005-006-010-012-015-018-020-021-024-026-027-029-190500- MAINE CITY SKY/WX TMP DP RH WIND PRES REMARKS PORTLAND FAIR 65 62 90 N6 29.93R SANFORD MOCLDY 65 62 90 N5 29.94R BAR HARBOR FAIR 60 59 96 N3 29.92R WISCASSET FAIR 61 60 97 CALM 29.94R ROCKLAND FAIR 64 61 90 CALM 29.92R FRYEBURG FAIR 60 59 96 NW3 29.96R LEWISTONAUBURN FAIR 62 61 96 CALM 29.95R AUGUSTA FAIR 61 60 97 NW5 29.94S WATERVILLE FAIR 63 59 87 N6 29.92S BANGOR FAIR 60 59 96 N5 29.93S GREENVILLE N/A 58 55 90 N6 29.96S MILLINOCKET FAIR 59 56 89 CALM 29.95S HOULTON MOCLDY 55 55 100 CALM 29.94R PRESQUE ISLE FAIR 55 55 100 CALM 29.97R FOG FRENCHVILLE FAIR 60 50 69 N10 29.98R CARIBOU FAIR 60 53 77 N3 29.95S $$ NHZ002-005-008-009-011-012-014-190500- NEW HAMPSHIRE CITY SKY/WX TMP DP RH WIND PRES REMARKS PORTSMOUTH CLOUDY 67 64 90 N5 29.91R ROCHESTER CLOUDY 66 63 90 N3 29.93R NASHUA LGT RAIN 67 67 100 VRB3 29.93R MANCHESTER CLOUDY 69 63 81 N6 29.91R CONCORD CLOUDY 68 61 78 N5 29.93S LACONIA MOCLDY 67 60 78 NE8 29.95 PLYMOUTH FAIR 62 61 96 CALM 29.95R BERLIN FOG 57 57 100 CALM 29.99S VSB 1/4 WHITEFIELD FAIR 56 55 97 CALM 29.98R JAFFREY CLOUDY 65 64 97 VRB3 29.96R KEENE CLOUDY N/A N/A N/A VRB3 29.93S LEBANON CLOUDY 66 62 87 CALM 29.95S MT WASHINGTON PTCLDY 45 39 81 NE30 N/A $$ VTZ005-007-008-190500- VERMONT CITY SKY/WX TMP DP RH WIND PRES REMARKS ST JOHNSBURY N/A 59 59 100 MISG 29.96R MONTPELIER FAIR 60 60 100 CALM 30.01S BURLINGTON FOG 63 61 93 CALM 29.96S VSB 1/8 $$ MAZ007-012-024-CTZ003-RIZ002-NYZ038-NYZ072-190500- SOUTHERN NEW ENGLAND AND NY CITY SKY/WX TMP DP RH WIND PRES REMARKS BOSTON RAIN 67 64 90 NE10G20 29.91R FOG WORCESTER LGT RAIN 63 63 100 NE9 29.92R FOG NANTUCKET CLOUDY 70 69 97 NE13 29.83R PROVIDENCE CLOUDY 68 66 93 NE18G25 29.88R THUNDER HARTFORD CLOUDY 69 63 81 N8 29.89R ALBANY CLOUDY 69 61 75 N7 29.93S NEW YORK CITY MOCLDY 73 64 73 N8 29.85S $$ ANZ081-ANZ082-ANZ150-NHZ014-MEZ023>029-190500- COASTAL MARINE OBSERVATIONS STATION/POSITION TIME TEMP WIND PRES WAVE AIR SEA DIR/SP/G HT/PER (UTC) (F) (DEG/KT/KT) (MB) (FT/S) MOUNT DESERT ROC 0400 59 350/ 14/ 14 1012.4R MATINICUS ROCK 0300 61 10/ 11/ 11 1012.0S ISLE OF SHOALS 0300 66 30/ 9/ 10 1012.2R JEFFREYS LEDGE 0336 67 N/A 4/ 6 $$ .............KEY.............. WCI - WIND CHILL TC - TEMPERATURE IN CELSIUS VSB - VISIBILITY IN MILES HX - HEAT INDEX FAIR- INDICATES FEW OR NO CLOUDS BELOW 12,000 FT, WITH NO SIGNIFICANT WEATHER AND/OR OBSTRUCTIONS TO VISIBILITY.

USA.gov is the U.S. government's official web portal to all federal, state and local government web resources and services.